GW1083 Weather Reports


Display with metric or nautical units.
time (UTC)temp
F
wind
direction
speed
MPH
gust
MPH
rain 1hr
in
rain 24hr
in
rain mn
in
humidity
%
barometer
mb
20260505053915 61 144 0.0 200.0 0.00 0.00 0.00 81 588.0
20260505052908 61 149 0.0 200.0 0.00 0.00 0.00 81 607.8
20260505052408 61 151 0.0 200.0 0.00 0.00 0.00 80 617.4
20260505051908 62 151 0.0 200.0 0.00 0.00 0.00 80 633.0
20260505051407 62 151 0.0 200.0 0.00 0.00 0.00 80 666.1
20260505050351 62 189 0.0 200.0 0.00 0.00 0.00 79 714.4
20260505041312 63 199 0.0 200.0 0.00 0.00 0.00 76 690.6
20260505040812 63 198 0.0 200.0 0.00 0.00 0.00 75 678.3
20260505040312 64 181 0.0 200.0 0.00 0.00 0.00 75 665.5
20260505035812 64 185 0.0 200.0 0.00 0.00 0.00 75 647.9
20260505035311 64 171 0.0 200.0 0.00 0.00 0.00 74 607.6
20260505034811 64 130 0.0 200.0 0.00 0.00 0.00 74 559.7
20260505034311 64 124 0.0 200.0 0.00 0.00 0.00 73 567.4
20260505033811 65 182 0.0 200.0 0.00 0.00 0.00 72 642.7
20260505033309 65 176 0.0 200.0 0.00 0.00 0.00 71 626.1
20260505032808 65 144 0.0 200.0 0.00 0.00 0.00 70 574.2
20260505032307 65 170 0.0 200.0 0.00 0.00 0.00 69 644.2
20260505031806 65 158 0.0 200.0 0.00 0.00 0.00 68 644.3
20260505031306 65 141 0.0 200.0 0.00 0.00 0.00 68 643.3
20260505030805 65 158 0.0 200.0 0.00 0.00 0.00 67 681.5
20260505030305 65 217 0.0 200.0 0.00 0.00 0.00 66 727.5
20260505025804 66 191 0.0 200.0 0.00 0.00 0.00 66 685.6
20260505023735 66 129 0.0 200.0 0.00 0.00 0.00 64 638.3
20260505023234 66 8 0.0 200.0 0.00 0.00 0.00 63 698.9
20260505022733 66 158 0.0 200.0 0.00 0.00 0.00 63 641.2
20260505022232 66 180 0.0 200.0 0.00 0.00 0.00 62 665.3
20260505021215 66 159 0.0 200.0 0.00 0.00 0.00 61 663.5
20260505020714 66 181 0.0 200.0 0.00 0.00 0.00 61 691.5
20260505020213 66 191 0.0 200.0 0.00 0.00 0.00 61 698.1
20260505015207 66 161 0.0 200.0 0.00 0.00 0.00 61 629.7
20260505014151 66 172 0.0 200.0 0.00 0.00 0.00 62 654.3
20260505013650 66 172 0.0 200.0 0.00 0.00 0.00 62 634.7
20260505013149 66 156 0.0 200.0 0.00 0.00 0.00 62 656.5
20260505012648 66 178 0.0 200.0 0.00 0.00 0.00 62 671.3
20260505012147 66 164 0.0 200.0 0.00 0.00 0.00 61 656.9
20260505011646 67 196 0.0 200.0 0.00 0.00 0.00 61 687.5
20260505011145 67 170 0.0 200.0 0.00 0.00 0.00 61 640.8
20260505010643 67 172 0.0 200.0 0.00 0.00 0.00 60 635.6
20260505005636 67 183 0.0 200.0 0.00 0.00 0.00 59 628.2
20260505005136 67 149 0.0 200.0 0.00 0.00 0.00 59 619.8
20260505004635 67 126 0.0 200.0 0.00 0.00 0.00 58 639.4
20260505004134 68 157 0.0 200.0 0.00 0.00 0.00 57 653.1
20260505003633 68 163 0.0 200.0 0.00 0.00 0.00 56 681.7
20260505003131 68 182 0.0 200.0 0.00 0.00 0.00 56 689.4
20260505002631 68 164 0.0 200.0 0.00 0.00 0.00 55 680.0
20260505002130 68 168 0.0 200.0 0.00 0.00 0.00 55 672.2
20260505001128 68 183 0.0 200.0 0.00 0.00 0.00 54 672.0
20260505000628 68 151 0.0 200.0 0.00 0.00 0.00 53 648.1
20260505000126 68 156 0.0 200.0 0.00 0.00 0.00 53 669.1
20260504235119 69 143 0.0 200.0 0.00 0.00 0.00 52 651.5
20260504233607 69 164 0.0 200.0 0.00 0.00 0.00 51 654.9
20260504233106 70 178 0.0 200.0 0.00 0.00 0.00 51 673.8
20260504232605 70 162 0.0 200.0 0.00 0.00 0.00 50 657.8
20260504232105 70 148 0.0 200.0 0.00 0.00 0.00 50 684.6
20260504231604 70 181 0.0 200.0 0.00 0.00 0.00 50 681.3
20260504231104 71 169 0.0 200.0 0.00 0.00 0.00 49 671.3
20260504230603 71 217 0.0 200.0 0.00 0.00 0.00 48 693.4
20260504225601 71 180 0.0 200.0 0.00 0.00 0.00 48 654.2
20260504225100 71 212 0.0 200.0 0.00 0.00 0.00 47 642.6
20260504224043 71 192 0.0 200.0 0.00 0.00 0.00 49 665.5
20260504223542 71 173 0.0 200.0 0.00 0.00 0.00 49 637.7
20260504221503 71 190 0.0 200.0 0.00 0.00 0.00 50 637.0
20260504221003 71 168 0.0 200.0 0.00 0.00 0.00 50 606.4
20260504220502 71 126 0.0 200.0 0.00 0.00 0.00 51 588.8
20260504220002 71 119 0.0 200.0 0.00 0.00 0.00 50 591.8
20260504214955 71 129 0.0 200.0 0.00 0.00 0.00 50 566.9
20260504214454 71 158 0.0 200.0 0.00 0.00 0.00 52 588.5
20260504213954 71 151 0.0 200.0 0.00 0.00 0.00 52 583.8
20260504213453 71 158 0.0 200.0 0.00 0.00 0.00 52 566.2
20260504212952 71 55 0.0 200.0 0.00 0.00 0.00 51 569.6
20260504212451 71 134 0.0 200.0 0.00 0.00 0.00 51 543.0
20260504211951 71 155 0.0 200.0 0.00 0.00 0.00 49 552.3
20260504210935 72 62 0.0 200.0 0.00 0.00 0.00 50 492.2
20260504210434 72 101 0.0 200.0 0.00 0.00 0.00 49 561.5
20260504205933 72 129 0.0 200.0 0.00 0.00 0.00 50 565.4
20260504205432 72 125 0.0 200.0 0.00 0.00 0.00 49 531.8
20260504204931 73 135 0.0 200.0 0.00 0.00 0.00 48 578.8
20260504204430 73 142 0.0 200.0 0.00 0.00 0.00 48 619.8
20260504203413 73 183 0.0 200.0 0.00 0.00 0.00 46 639.9
20260504202912 73 103 0.0 200.0 0.00 0.00 0.00 45 579.1
20260504202411 73 195 0.0 200.0 0.00 0.00 0.00 45 618.3
20260504201910 72 97 0.0 200.0 0.00 0.00 0.00 44 527.3
20260504200854 72 126 0.0 200.0 0.00 0.00 0.00 45 586.3
20260504195331 72 123 0.0 200.0 0.00 0.00 0.00 43 520.0
20260504194314 72 110 0.0 200.0 0.00 0.00 0.00 44 497.4
20260504193814 72 120 0.0 200.0 0.00 0.00 0.00 42 530.3
20260504193313 73 109 0.0 200.0 0.00 0.00 0.00 41 551.1
20260504192812 74 157 0.0 200.0 0.00 0.00 0.00 45 603.2
20260504192311 73 156 0.0 200.0 0.00 0.00 0.00 43 573.2
20260504191811 73 88 0.0 200.0 0.00 0.00 0.00 42 562.3
20260504190754 73 110 0.0 200.0 0.00 0.00 0.00 42 568.6
20260504190253 73 194 0.0 200.0 0.00 0.00 0.00 45 634.5
20260504185752 72 150 0.0 200.0 0.00 0.00 0.00 42 563.8
20260504185251 71 83 0.0 200.0 0.00 0.00 0.00 42 500.4
20260504184750 71 125 0.0 200.0 0.00 0.00 0.00 42 502.3
20260504184249 71 93 0.0 200.0 0.00 0.00 0.00 41 475.8
20260504183748 71 106 0.0 200.0 0.00 0.00 0.00 41 529.2
20260504183247 70 123 0.0 200.0 0.00 0.00 0.00 44 500.8
20260504182745 70 96 0.0 200.0 0.00 0.00 0.00 44 473.8
20260504182244 70 95 0.0 200.0 0.00 0.00 0.00 44 511.4
20260504181237 70 95 0.0 200.0 0.00 0.00 0.00 43 512.1
20260504180220 70 133 0.0 200.0 0.00 0.00 0.00 42 516.4
20260504175719 70 115 0.0 200.0 0.00 0.00 0.00 43 491.2
20260504175218 70 110 0.0 200.0 0.00 0.00 0.00 40 484.5
20260504174717 70 100 0.0 200.0 0.00 0.00 0.00 41 467.6
20260504174216 70 101 0.0 200.0 0.00 0.00 0.00 42 497.0
20260504173715 70 111 0.0 200.0 0.00 0.00 0.00 43 532.0
20260504173214 70 108 0.0 200.0 0.00 0.00 0.00 43 528.8
20260504172714 70 146 0.0 200.0 0.00 0.00 0.00 42 555.8
20260504171707 70 96 0.0 200.0 0.00 0.00 0.00 42 507.7
20260504171207 70 146 0.0 200.0 0.00 0.00 0.00 40 574.0
20260504170705 70 93 0.0 200.0 0.00 0.00 0.00 46 503.4
20260504170204 69 110 0.0 200.0 0.00 0.00 0.00 47 467.6
20260504151016 64 123 0.0 200.0 0.00 0.00 0.00 51 492.3
20260504140846 60 197 0.0 200.0 0.00 0.00 0.00 54 668.5
20260504130745 57 208 0.0 200.0 0.00 0.00 0.00 56 778.2
20260504130244 57 188 0.0 200.0 0.00 0.00 0.00 57 749.6
20260504120202 53 194 0.0 200.0 0.00 0.00 0.00 67 719.4
20260504110115 48 245 0.0 200.0 0.00 0.00 0.00 82 872.3
20260504100544 47 240 0.0 200.0 0.00 0.00 0.00 81 867.1
20260504081512 48 240 0.0 200.0 0.00 0.00 0.00 76 865.7
20260504081011 49 240 0.0 200.0 0.00 0.00 0.00 76 864.5